| time (UTC) | temp F | wind direction | speed MPH | gust MPH | rain 1hr in | rain 24hr in | rain mn in | humidity % | barometer mb |
| 20260831043055 | 73 | 0 | 0.0 | 0.0 | 0.00 | 0.01 | 0.00 | 96 | 1020.7 |
| 20260831041602 | 72 | 0 | 0.0 | 0.0 | 0.00 | 0.01 | 0.00 | 96 | 1020.7 |
| 20260831040049 | 73 | 0 | 0.0 | 0.0 | 0.00 | 0.01 | 0.00 | 96 | 1020.8 |
| 20260831034558 | 73 | 0 | 0.0 | 0.0 | 0.00 | 0.25 | 0.01 | 96 | 1020.9 |
| 20260831033051 | 73 | 0 | 0.0 | 0.0 | 0.00 | 0.25 | 0.01 | 96 | 1020.7 |
| 20260831031550 | 74 | 0 | 0.0 | 0.0 | 0.00 | 0.25 | 0.01 | 96 | 1020.9 |
| 20260831030100 | 74 | 0 | 0.0 | 0.0 | 0.00 | 0.25 | 0.01 | 96 | 1021.0 |
| 20260831024612 | 74 | 0 | 0.0 | 0.0 | 0.00 | 0.28 | 0.01 | 95 | 1021.0 |
| 20260831023047 | 74 | 0 | 0.0 | 0.0 | 0.00 | 0.28 | 0.01 | 95 | 1021.0 |
| 20260831021546 | 74 | 0 | 0.0 | 0.0 | 0.00 | 0.28 | 0.01 | 94 | 1020.9 |
| 20260831020104 | 75 | 0 | 0.0 | 0.0 | 0.00 | 0.28 | 0.01 | 93 | 1020.9 |
| 20260831014601 | 75 | 0 | 0.0 | 0.0 | 0.00 | 0.28 | 0.01 | 92 | 1020.8 |
| 20260831013056 | 75 | 0 | 0.0 | 0.0 | 0.00 | 0.28 | 0.01 | 91 | 1020.5 |
| 20260831011607 | 76 | 0 | 0.0 | 0.0 | 0.00 | 0.28 | 0.01 | 90 | 1020.3 |
| 20260831010051 | 76 | 0 | 0.0 | 0.0 | 0.00 | 0.28 | 0.01 | 89 | 1020.0 |
| 20260831004558 | 77 | 0 | 0.0 | 0.0 | 0.00 | 0.28 | 0.01 | 88 | 1019.8 |
| 20260831003055 | 78 | 0 | 0.0 | 0.0 | 0.00 | 0.28 | 0.01 | 87 | 1019.8 |
| 20260831001555 | 78 | 0 | 0.0 | 0.0 | 0.00 | 0.28 | 0.01 | 85 | 1019.8 |
| 20260831000049 | 79 | 0 | 0.0 | 0.0 | 0.00 | 0.28 | 0.01 | 84 | 1019.8 |
| 20260830234611 | 80 | 0 | 0.0 | 0.0 | 0.00 | 0.28 | 0.01 | 83 | 1019.7 |
| 20260830233054 | 81 | 0 | 0.0 | 0.0 | 0.00 | 0.28 | 0.01 | 82 | 1019.7 |
| 20260830231605 | 82 | 0 | 0.0 | 0.0 | 0.00 | 0.28 | 0.01 | 81 | 1019.6 |
| 20260830224557 | 83 | 0 | 0.0 | 0.0 | 0.00 | 0.28 | 0.01 | 79 | 1019.5 |
| 20260830223056 | 83 | 0 | 0.0 | 0.0 | 0.00 | 0.28 | 0.01 | 80 | 1019.5 |
| 20260830221552 | 84 | 0 | 0.0 | 0.0 | 0.00 | 0.28 | 0.01 | 78 | 1019.5 |
| 20260830220048 | 84 | 0 | 0.0 | 0.0 | 0.00 | 0.28 | 0.01 | 79 | 1019.5 |
| 20260830214558 | 85 | 0 | 0.0 | 0.0 | 0.00 | 0.28 | 0.01 | 73 | 1019.6 |
| 20260830213051 | 85 | 0 | 0.0 | 0.0 | 0.00 | 0.28 | 0.01 | 74 | 1019.7 |
| 20260830211545 | 87 | 0 | 0.0 | 0.0 | 0.00 | 0.28 | 0.01 | 70 | 1019.8 |
| 20260830210055 | 86 | 0 | 0.0 | 1.0 | 0.00 | 0.28 | 0.01 | 74 | 1020.0 |
| 20260830204550 | 87 | 0 | 0.0 | 1.0 | 0.00 | 0.28 | 0.01 | 69 | 1020.1 |
| 20260830203047 | 90 | 0 | 0.0 | 1.0 | 0.00 | 0.28 | 0.01 | 66 | 1020.2 |
| 20260830201612 | 90 | 103 | 0.0 | 1.0 | 0.00 | 0.28 | 0.01 | 64 | 1020.2 |
| 20260830200054 | 89 | 0 | 0.0 | 2.0 | 0.00 | 0.28 | 0.01 | 65 | 1020.4 |
| 20260830194551 | 90 | 0 | 0.0 | 1.0 | 0.00 | 0.28 | 0.01 | 66 | 1020.7 |
| 20260830193058 | 90 | 0 | 0.0 | 1.0 | 0.00 | 0.28 | 0.01 | 65 | 1020.8 |
| 20260830191557 | 89 | 0 | 0.0 | 1.0 | 0.00 | 0.28 | 0.01 | 68 | 1020.9 |
| 20260830190054 | 89 | 0 | 0.0 | 0.0 | 0.00 | 0.28 | 0.01 | 68 | 1021.0 |
| 20260830184545 | 87 | 0 | 0.0 | 2.0 | 0.00 | 0.28 | 0.01 | 72 | 1021.2 |
| 20260830183046 | 86 | 0 | 0.0 | 2.0 | 0.00 | 0.28 | 0.01 | 75 | 1021.4 |
| 20260830181604 | 85 | 0 | 0.0 | 3.0 | 0.00 | 0.28 | 0.01 | 75 | 1021.6 |
| 20260830180054 | 84 | 0 | 0.0 | 2.0 | 0.00 | 0.28 | 0.01 | 78 | 1021.9 |
| 20260830174546 | 84 | 0 | 0.0 | 1.0 | 0.00 | 0.28 | 0.01 | 77 | 1022.1 |
| 20260830173109 | 84 | 0 | 0.0 | 0.0 | 0.00 | 0.28 | 0.01 | 77 | 1022.6 |
| 20260830171552 | 83 | 0 | 0.0 | 0.0 | 0.00 | 0.28 | 0.01 | 81 | 1022.7 |
| 20260830170046 | 82 | 0 | 0.0 | 0.0 | 0.00 | 0.28 | 0.01 | 82 | 1022.8 |
| 20260830164548 | 82 | 0 | 0.0 | 1.0 | 0.00 | 0.28 | 0.01 | 83 | 1023.0 |
| 20260830163059 | 81 | 0 | 0.0 | 1.0 | 0.00 | 0.28 | 0.01 | 85 | 1023.0 |
| 20260830161548 | 80 | 0 | 0.0 | 1.0 | 0.00 | 0.28 | 0.01 | 86 | 1023.2 |
| 20260830160048 | 79 | 0 | 0.0 | 1.0 | 0.00 | 0.28 | 0.01 | 90 | 1023.2 |
| 20260830154558 | 77 | 0 | 0.0 | 0.0 | 0.00 | 0.28 | 0.01 | 91 | 1023.2 |
| 20260830153054 | 77 | 0 | 0.0 | 2.0 | 0.00 | 0.28 | 0.01 | 94 | 1023.3 |
| 20260830151624 | 75 | 0 | 0.0 | 0.0 | 0.00 | 0.28 | 0.01 | 97 | 1023.4 |
| 20260830150045 | 75 | 0 | 0.0 | 0.0 | 0.00 | 0.28 | 0.01 | 97 | 1023.5 |
| 20260830144555 | 74 | 0 | 0.0 | 0.0 | 0.00 | 0.28 | 0.01 | 96 | 1023.4 |
| 20260830143050 | 74 | 0 | 0.0 | 0.0 | 0.00 | 0.28 | 0.01 | 97 | 1023.6 |
| 20260830141547 | 74 | 0 | 0.0 | 0.0 | 0.00 | 0.28 | 0.01 | 97 | 1023.3 |
| 20260830140053 | 74 | 0 | 0.0 | 0.0 | 0.00 | 0.28 | 0.01 | 97 | 1023.4 |
| 20260830134547 | 74 | 0 | 0.0 | 0.0 | 0.00 | 0.28 | 0.01 | 97 | 1023.5 |
| 20260830133047 | 73 | 0 | 0.0 | 0.0 | 0.00 | 0.28 | 0.01 | 97 | 1023.5 |
| 20260830131553 | 73 | 0 | 0.0 | 0.0 | 0.00 | 0.28 | 0.01 | 97 | 1023.4 |
| 20260830130054 | 72 | 0 | 0.0 | 0.0 | 0.00 | 0.28 | 0.01 | 97 | 1023.4 |
| 20260830124555 | 71 | 0 | 0.0 | 0.0 | 0.00 | 0.28 | 0.01 | 97 | 1023.3 |
| 20260830123048 | 71 | 0 | 0.0 | 0.0 | 0.00 | 0.28 | 0.01 | 96 | 1023.4 |
| 20260830121549 | 70 | 0 | 0.0 | 0.0 | 0.00 | 0.28 | 0.01 | 96 | 1023.1 |
| 20260830120050 | 70 | 0 | 0.0 | 0.0 | 0.00 | 0.28 | 0.01 | 96 | 1022.8 |
| 20260830114555 | 70 | 0 | 0.0 | 0.0 | 0.00 | 0.28 | 0.01 | 96 | 1022.7 |
| 20260830113049 | 70 | 0 | 0.0 | 0.0 | 0.00 | 0.28 | 0.01 | 96 | 1022.4 |
| 20260830111546 | 70 | 0 | 0.0 | 0.0 | 0.00 | 0.28 | 0.01 | 96 | 1022.2 |
| 20260830110049 | 70 | 0 | 0.0 | 0.0 | 0.00 | 0.28 | 0.01 | 96 | 1021.9 |
| 20260830104552 | 70 | 0 | 0.0 | 0.0 | 0.00 | 0.29 | 0.01 | 96 | 1021.8 |
| 20260830103049 | 70 | 0 | 0.0 | 0.0 | 0.00 | 0.29 | 0.01 | 96 | 1021.8 |
| 20260830101547 | 70 | 0 | 0.0 | 0.0 | 0.00 | 0.29 | 0.01 | 96 | 1021.6 |
| 20260830100046 | 70 | 0 | 0.0 | 0.0 | 0.00 | 0.29 | 0.01 | 96 | 1021.5 |
| 20260830094608 | 70 | 0 | 0.0 | 0.0 | 0.00 | 0.29 | 0.01 | 96 | 1021.5 |
| 20260830093046 | 70 | 0 | 0.0 | 0.0 | 0.00 | 0.29 | 0.01 | 96 | 1021.4 |
| 20260830091555 | 70 | 0 | 0.0 | 0.0 | 0.00 | 0.29 | 0.01 | 96 | 1021.4 |
| 20260830090051 | 71 | 0 | 0.0 | 0.0 | 0.00 | 0.29 | 0.01 | 96 | 1021.4 |
| 20260830084605 | 71 | 0 | 0.0 | 0.0 | 0.00 | 0.29 | 0.01 | 96 | 1021.3 |
| 20260830083103 | 71 | 0 | 0.0 | 0.0 | 0.00 | 0.29 | 0.01 | 96 | 1021.3 |
| 20260830081552 | 71 | 0 | 0.0 | 0.0 | 0.00 | 0.29 | 0.01 | 96 | 1021.3 |
| 20260830080054 | 71 | 0 | 0.0 | 0.0 | 0.00 | 0.29 | 0.01 | 96 | 1021.3 |
| 20260830074557 | 71 | 0 | 0.0 | 0.0 | 0.00 | 0.29 | 0.01 | 96 | 1021.4 |
| 20260830073107 | 71 | 0 | 0.0 | 0.0 | 0.01 | 0.29 | 0.01 | 96 | 1021.1 |
| 20260830071549 | 71 | 0 | 0.0 | 0.0 | 0.01 | 0.29 | 0.01 | 96 | 1021.3 |
| 20260830070047 | 72 | 0 | 0.0 | 0.0 | 0.01 | 0.29 | 0.01 | 96 | 1021.4 |
| 20260830064556 | 72 | 0 | 0.0 | 0.0 | 0.01 | 0.42 | 0.01 | 96 | 1021.4 |
| 20260830063051 | 72 | 0 | 0.0 | 0.0 | 0.00 | 0.41 | 0.00 | 96 | 1021.6 |
| 20260830061608 | 72 | 0 | 0.0 | 0.0 | 0.00 | 0.41 | 0.00 | 96 | 1021.7 |
| 20260830060059 | 72 | 0 | 0.0 | 0.0 | 0.00 | 0.41 | 0.00 | 96 | 1021.8 |
| 20260830054555 | 72 | 0 | 0.0 | 0.0 | 0.00 | 1.34 | 0.00 | 96 | 1021.9 |
| 20260830053100 | 73 | 0 | 0.0 | 0.0 | 0.00 | 1.34 | 0.00 | 96 | 1021.9 |
| 20260830051558 | 73 | 0 | 0.0 | 0.0 | 0.00 | 1.34 | 0.00 | 96 | 1022.2 |
| 20260830050056 | 73 | 0 | 0.0 | 0.0 | 0.00 | 1.34 | 0.00 | 96 | 1022.0 |
| 20260830044557 | 73 | 0 | 0.0 | 0.0 | 0.00 | 2.18 | 0.00 | 96 | 1022.2 |